Preview of NWS' New Version of Forecast
This preview is not operational and should not be used for support decisions.

Regional Weather Roundup (RWR)

Issued by National Weather Service (NWS)

                            
000
ASUS43 KMKX 181121
RWRWI 

WISCONSIN REGIONAL WEATHER ROUNDUP
NATIONAL WEATHER SERVICE MILWAUKEE/SULLIVAN WI
600 AM CDT TUE JUN 18 2019

NOTE: "FAIR" INDICATES FEW OR NO CLOUDS BELOW 12,000 FEET WITH NO
SIGNIFICANT WEATHER AND/OR OBSTRUCTIONS TO VISIBILITY.

WIZ001-002-006>008-014>016-023>028-181200-
NORTHWEST WISCONSIN
  
CITY           SKY/WX    TMP DP  RH WIND       PRES   REMARKS
SUPERIOR ARPT  CLOUDY    48  48  98 CALM      29.97R                  
ASHLAND        FOG       53  53 100 CALM      29.96S VSB 1/4          
HAYWARD        FOG       49  49 100 CALM      29.97S VSB 1/4          
SIREN          FAIR      45  43  93 CALM      29.97F                  
CUMBERLAND     FAIR      48  46  93 CALM      29.98R                  
RICE LAKE      HAZE      51  45  82 CALM      29.98S VSB 1/4          
CHETEK         FAIR      51  51 100 CALM      29.97S FOG              
LADYSMITH      FOG       52  52  99 CALM      29.99R VSB 1/2          
EAU CLAIRE     FAIR      56  55  97 CALM      29.95S                  
MENOMONIE      FAIR      53  51  93 NW3       29.97F                  
NEW RICHMOND     N/A     51  51  99 CALM      29.98S FOG              
OSCEOLA        CLOUDY    51  50  97 CALM      30.00F                  
$$
 
WIZ003>005-009-010-017-018-181200-
NORTH CENTRAL WISCONSIN
  
CITY           SKY/WX    TMP DP  RH WIND       PRES   REMARKS
MANITOWISH WTR FOG       51  51 100 CALM      29.96S VSB 3/4          
ARBOR VITAE    MOCLDY    57  55  92 CALM      29.96S FOG              
WOODRUFF       MOCLDY    57  55  92 CALM      29.96S FOG              
RHINELANDER    NOT AVBL                                               
EAGLE RIVER    CLOUDY    59  58  97 SW3       29.95F                  
LAND O LAKES   CLOUDY    57  57 100 CALM      29.97S                  
PHILLIPS       FOG       53  53 100 CALM      29.96S VSB<1/4          
TOMAHAWK       CLOUDY    58  57  97 CALM      29.97S                  
MEDFORD        CLOUDY    58  58  98 CALM      29.96S FOG              
MERRILL        CLOUDY    60  60 100 CALM      29.96S FOG              
$$
 
WIZ029-030-035-036-043>047-181200-
CENTRAL WISCONSIN
  
CITY           SKY/WX    TMP DP  RH WIND       PRES   REMARKS
WAUSAU         NOT AVBL                                               
MOSINEE        CLOUDY    59  57  94 CALM      29.97F                  
MARSHFIELD     NOT AVBL                                               
STEVENS POINT  FAIR      58  58 100 CALM      29.96F                  
WAUPACA        MOCLDY    62  60  93 CALM      29.96S                  
WAUTOMA        NOT AVBL                                               
WISC RAPIDS    NOT AVBL                                               
CAMP DOUGLAS   MOCLDY    60  60 100 CALM      29.95F                  
$$
 
WIZ011>013-019>022-031-037>040-048>050-181200-
NORTHEAST WISCONSIN
  
CITY           SKY/WX    TMP DP  RH WIND       PRES   REMARKS
ANTIGO         LGT RAIN  58  58  99 CALM      29.96F                  
SHAWANO        CLOUDY    62  56  81 CALM      29.95F                  
OCONTO         CLOUDY    57  56  94 CALM      29.95F                  
STURGEON BAY   NOT AVBL                                               
GREEN BAY      CLOUDY    59  55  87 CALM      29.96S                  
MANITOWOC      MOCLDY    55  51  86 CALM      29.97S                  
APPLETON       CLOUDY    59  52  77 CALM      29.95S                  
CLINTONVILLE   CLOUDY    60  56  86 CALM      29.95F                  
OSHKOSH        NOT AVBL                                               
$$
 
WIZ032>034-041-042-053>061-181200-
SOUTHWEST WISCONSIN
  
CITY           SKY/WX    TMP DP  RH WIND       PRES   REMARKS
LA CROSSE      CLOUDY    67  62  84 SE3       29.95S                  
SPARTA         CLOUDY    55  55 100 CALM      29.97S                  
VIROQUA        CLOUDY    62  62 100 CALM      29.97S                  
BOSCOBEL       CLOUDY    60  58  92 CALM      29.97S                  
PRAIRIE DU CHI DRIZZLE   62  61  96 CALM      29.97S                  
PLATTEVILLE    CLOUDY    60  60 100 CALM      29.98S                  
$$

WIZ056-057-062-063-064-067-068-181200-
SOUTH CENTRAL WISCONSIN
  
CITY           SKY/WX    TMP DP  RH WIND       PRES   REMARKS
REEDSBURG      CLOUDY    59  59 100 CALM      29.96S                  
BARABOO/DELLS  CLOUDY    60  59  95 CALM      29.96S                  
LONE ROCK      CLOUDY    59  58  96 CALM      29.97S                  
MINERAL POINT  CLOUDY    61  61 100 CALM      29.98S FOG              
MADISON        MOCLDY    57  55  93 CALM      29.96S FOG              
MIDDLETON      CLOUDY    58  58 100 CALM      29.98S                  
WATERTOWN      FAIR      55  55 100 CALM      29.97F FOG              
MONROE         MOCLDY    58  57  96 CALM      29.97F                  
JANESVILLE     PTCLDY    55  55 100 CALM      29.97F FOG              
$$
 
WIZ051-052-058>065-066-070>072-181200-
SOUTHEAST WISCONSIN
  
CITY           SKY/WX    TMP DP  RH WIND       PRES   REMARKS
MILWAUKEE      FOG       55  53  93 S3        29.98S VSB 1/8          
WAUKESHA       FOG       52  52 100 CALM      29.99S VSB 1/2          
MILWAUKEE/TIMM FAIR      50  46  87 CALM      29.99S                  
RACINE         CLOUDY    56  53  90 CALM      30.00S                  
KENOSHA        CLOUDY    57  55  93 CALM      29.98S                  
FOND DU LAC    MOCLDY    58  55  90 S6        29.96F                  
SHEBOYGAN      FAIR      54  51  90 CALM      29.96F                  
WEST BEND      FAIR      52  52 100 CALM      29.98S                  
JUNEAU         FAIR      55  55  97 CALM      29.98S FOG              
$$

LSZ147-162-181200-
LAKE SUPERIOR
  
STATION/POSITION TIME  TEMP    WIND        PRES    WAVE
                       AIR SEA DIR/SP/G            HT/PER
                 (UTC) (F)     (DEG/KT/KT) (MB)    (FT/S)
W MID LAKE BUOY  1050   41 38   30/  6/  8 1014.7R   1
$$
 
LMZ867-665-643>646-181200-
LAKE MICHIGAN
  
STATION/POSITION TIME  TEMP    WIND        PRES    WAVE
                       AIR SEA DIR/SP/G            HT/PER
                 (UTC) (F)     (DEG/KT/KT) (MB)    (FT/S)
S GREEN BAY BUOY 1100   60 62  240/  2/  4 1015.0
N MID LAKE BUOY  1110   48 39  170/  6/  8 1015.4
NORTHPORT PIER   1040   55      CALM  /  2 1014.2F
SHEBOYGAN LAKESH 1100   55     200/  5/  6 1014.7F
ATWATER BUOY     1100   53 52   CALM  /  2 1015.4F   0
MILWAUKEE LAKESH 1050   55     230/  6/  7   N/A
S MID LAKE BUOY  1100   47 45  290/  4/  4 1016.1
KENOSHA   LAKESH 1100   58     340/  2/  3 1015.2
$$

TC  - TEMPERATURE IN CELSIUS
VSB - VISIBILITY IN STATUTE MILES
WCI - WIND CHILL INDEX
HX  - HEAT INDEX